Tracking 30995 objects as of 5-Jul-2025
HD Live streaming from Space Station
objects crossing your sky now

CP5

Track CP5 now!
10-day predictions
CP5 is classified as:


NORAD ID: 38763
Int'l Code: 2012-048F
Perigee: 434.7 km
Apogee: 611.2 km
Inclination: 64.7 °
Period: 94.9 minutes
Semi major axis: 6893 km
RCS: Unknown
Launch date: September 13, 2012
Source: United States (US)
Launch site: AIR FORCE WESTERN TEST RANGE (AFWTR)

Uplink (MHz):
Downlink (MHz): 437.405
Beacon (MHz): 437.405
Mode: 1200bps AFSK CW
Call sign: CP5
Status: Inactive

Your satellite tracking list
STARLINK-31529
Track 1 satellite(s)




NASA's NSSDC Master Catalog

Two Line Element Set (TLE):
1 38763U 12048F   25186.36529503  .00008432  00000-0  35595-3 0  9994
2 38763  64.6540 209.0439 0127998 272.5141  86.1335 15.16693226 63971
Source of the keplerian elements: Caltech